Location: Julian California
(33.0790°N, 116.6010°W)
Time: 22:02:15
(UTC-07:00)

Terra - Pass Details

Date: 12 July 2018
Orbit: 701 x 703 km, 98.2° (Epoch: 20 September)

Event Time Altitude Azimuth Distance (km) Brightness Sun altitude
Exits shadow 23:51:31 20° 288° (WNW) 1,613 3.9 -33.2°
Drops below altitude 10° 23:53:50 10° 315° (NW) 2,168 5.0 -33.4°
Sets 23:56:33 0° 331° (NNW) 3,091 6.1 -33.5°
